Content
SEND FEEDBACK

Daily
Averages
Monthly
Summary
United States of America

CAMP QUEZON, GUAM


Home > North America > United States > Guam
Elevation: 82 meters     Latitude: 13 28N     Longitude: 144 48E

WEATHER
 
SELECT A DAY
Number of Records: 208,919;   Date Range: 1/1/95 - 7/23/14
 
SHARE

PRINT THIS DATA

[ ← Previous Day ]
WEATHER ALMANAC - 25 AUGUST, 2013
[ Next Day → ]
[ °F ]   °C
Weather ElementAverageHighLow
Temperature26.9 °C30.6 °C (11:54 am)24 °C (12:13 am)
Dewpoint23.9 °C24.4 °C (6:54 am)23 °C (7:02 pm)
Humidity84 %100 % (12:13 am)65 % (11:54 am)
Barometer1011.2 hPa1012.9 hPa (10:54 pm)1008.8 hPa (2:54 pm)
Wind Speed4.3 km/h16.7 km/h (10:54 am)
Weather ElementAverage
Visibility14.5 km
Wind DirectionENE (74.9 °)

Weather ElementTotal
Precipitation48.77 mm
Cooling Degree Days9 (Base 18.3)
Growing Degree Days17.3 (Base 10)
Averaged from 37 records on 25 August, 2013
WEATHER CONDITIONS BREAKOUT
WIND DIRECTION BREAKOUT
WEATHER BY HOUR - 25 AUGUST, 2013
[ °F ]   °C
Local TimeTemperatureDewpointHumidityBarometerVisibilityWind DirectionWind SpeedGust SpeedPrecipitationEventsConditions
12:06 AM25 °C24 °C94 %1012.2 hPa1.3 kmSSW (210°)9.3 km/h4.83 mmRainHeavy Rain
12:13 AM24 °C24 °C100 %1011.9 hPa3.2 kmCalm8.64 mmRainHeavy Rain
12:22 AM24 °C24 °C100 %1011.9 hPa3.2 kmSouth (190°)13 km/h10.92 mmRainHeavy Rain
12:33 AM24 °C24 °C100 %1012.2 hPa4.8 kmSouth (180°)13 km/h11.94 mmRainLight Rain
12:54 AM24.4 °C23.9 °C97 %1011.5 hPa8 kmCalm12.19 mmRainLight Rain
1:04 AM24 °C24 °C100 %1012.2 hPa16.1 kmSW (220°)5.6 km/h0 mmOvercast
1:07 AM24 °C24 °C100 %1012.2 hPa16.1 kmCalmRain-ThunderstormLight Thunderstorms and Rain
1:54 AM24.4 °C23.9 °C97 %1010.8 hPa16.1 kmCalmRain-ThunderstormLight Thunderstorms and Rain
2:54 AM24.4 °C23.9 °C97 %1011.2 hPa16.1 kmCalm0.25 mmRain-ThunderstormLight Thunderstorms and Rain
3:08 AM24 °C24 °C100 %1011.9 hPa16.1 kmCalm0 mmClear
3:54 AM25 °C23.9 °C94 %1010.8 hPa16.1 kmCalm0 mmClear
4:54 AM25 °C23.9 °C94 %1010.5 hPa16.1 kmCalmClear
5:54 AM25 °C23.9 °C94 %1011.2 hPa16.1 kmNNE (20°)5.6 km/hClear
6:54 AM25 °C24.4 °C96 %1011.9 hPa16.1 kmCalmClear
7:54 AM27.2 °C23.9 °C82 %1012.5 hPa16.1 kmCalmClear
8:54 AM28.3 °C24.4 °C79 %1012.5 hPa16.1 kmSouth (180°)9.3 km/hPartly Cloudy
9:54 AM28.3 °C23.9 °C77 %1012.2 hPa16.1 kmSSW (200°)7.4 km/hPartly Cloudy
10:54 AM30 °C23.9 °C70 %1011.9 hPa16.1 kmSSE (150°)16.7 km/hScattered Clouds
11:54 AM30.6 °C23.3 °C65 %1010.8 hPa16.1 kmSE (140°)9.3 km/hPartly Cloudy
12:54 PM30.6 °C23.3 °C65 %1010.2 hPa16.1 kmSE (140°)9.3 km/hPartly Cloudy
1:54 PM30.6 °C23.9 °C67 %1009.5 hPa16.1 kmWSW (250°)9.3 km/hPartly Cloudy
2:54 PM30 °C23.3 °C67 %1008.8 hPa16.1 kmESE (120°)7.4 km/hMostly Cloudy
3:54 PM29.4 °C23.9 °C72 %1009.1 hPa16.1 kmSE (140°)7.4 km/hMostly Cloudy
4:54 PM29.4 °C23.9 °C72 %1009.1 hPa16.1 kmSouth (190°)5.6 km/hMostly Cloudy
5:01 PM29 °C24 °C74 %1009.8 hPa16.1 kmVariable5.6 km/hMostly Cloudy
5:24 PM29 °C24 °C74 %1010.2 hPa16.1 kmCalmMostly Cloudy
5:32 PM29 °C24 °C74 %1010.2 hPa16.1 kmCalmMostly Cloudy
5:54 PM28.9 °C23.9 °C74 %1009.5 hPa16.1 kmVariable5.6 km/hMostly Cloudy
6:52 PM28 °C24 °C79 %1010.8 hPa16.1 kmSW (220°)11.1 km/hMostly Cloudy
6:54 PM27.8 °C23.9 °C79 %1010.2 hPa16.1 kmSW (220°)9.3 km/hMostly Cloudy
7:02 PM28 °C23 °C74 %1011.2 hPa16.1 kmCalmMostly Cloudy
7:54 PM27.2 °C23.9 °C82 %1011.2 hPa16.1 kmCalmMostly Cloudy
8:12 PM27 °C24 °C84 %1012.2 hPa16.1 kmCalmMostly Cloudy
8:54 PM27.2 °C23.9 °C82 %1011.9 hPa16.1 kmCalmScattered Clouds
9:54 PM26.7 °C23.3 °C81 %1012.5 hPa16.1 kmCalmClear
10:54 PM26.7 °C23.9 °C85 %1012.9 hPa16.1 kmCalmClear
11:54 PM26.1 °C23.9 °C88 %1012.2 hPa16.1 kmCalmPartly Cloudy
Hourly data recorded from PGUM, located 0 kilometers away from Camp Quezon, Guam







STORIES FROM OUR PARTNERS